Погода в Табарке

Тунис     36°57′03″N   8°45′28″E
темп.,
°C
ветер,
м/с
пор.,
м/с
влажн.,
%
обл.,
%
осадки,
мм/ч
давл.,
гПа
погр.,
м
15 августа, пн
пн1501:00+30ююз33422 0.0 100720
04:00+30юв124480 0.0 100612
07:00+30ю114664 0.0 100728
10:00+35зюз3335100 0.0 1007394
13:00+30зсз696791 0.0 1009526
16:00+30ссз24596 0.0 1008334
19:00+27всв0180100 1.1 101060
22:00+27юв6867100 0.0 1011155
16 августа, вт
вт1601:00+28ю4555100 0.0 100951
04:00+28ююв3453100 0.0 100849
07:00+28юз566294 0.0 1011272
10:00+31з445098 0.0 1012469
13:00+30сз45525 0.0 1013471
16:00+30ссв23497 0.0 1012365
19:00+30вюв444244 0.0 101152
22:00+29ююв444446 0.0 101234
17 августа, ср
ср1701:00+29вюв335358 0.0 101133
04:00+30юв511475 0.0 1008217
07:00+32ююв51141100 0.0 1008264
10:00+37ю81228100 0.0 1007393
13:00+35сз574298 0.0 1007628
16:00+32зсз335230 0.0 1007205
19:00+29всв1269100 0.0 100716
22:00+29з23603 0.0 100919
18 августа, чт
чт1801:00+27з56877 0.0 1010245
04:00+26зюз01867 0.0 1008152
07:00+28в126216 0.0 1008108
10:00+29ссз546916 0.0 1009360
13:00+28сз35733 0.0 1009441
16:00+30юз0167100 0.0 1008287
19:00+27зюз478357 0.0 1010503
22:00+27зсз579010 0.1 1012448
19 августа, пт
пт1901:00+27сз568397 0.4 1013672
04:00+26зсз578230 0.1 1013552
07:00+27сз677427 0.6 1014954
10:00+27сз56666 0.1 10161058
13:00+28сз56590 0.1 10161059
16:00+27ссз67610 0.1 10161149
19:00+26ссз676613 0.1 10161014
22:00+25сз45676 0.0 1017798